User: anonymous   Login
Location: Maiden
(35.5760°N, 81.2120°W)
Time: 22:09:39
(UTC-04:00)
Language:

Cosmos 2151 - Orbit

View from above orbital plane
View from above orbital plane
View from above satellite
View from above satellite

Ground track
Ground track

The orbit data is extracted from the following two-line orbital elements,

1 21422U 91042A   17081.80750538 +.00000207 +00000-0 +18025-4 0  9999
2 21422 082.5018 328.6517 0013210 218.4143 141.6137 14.91790105374542
Epoch (UTC): 22 March 2017 19:22:48
Eccentricity: 0.0013210
inclination: 82.5018°
perigee height: 583 km
apogee height: 601 km
right ascension of ascending node: 328.6517°
argument of perigee: 218.4143°
revolutions per day: 14.91790105
mean anomaly at epoch: 141.6137°
orbit number at epoch: 37454

The dashed part of the orbit path shows where the satellite is in the earth's shadow,  

DLR